CW8998 Weather Reports


Display with metric or nautical units.
time (UTC)temp
F
wind
direction
speed
MPH
gust
MPH
rain 1hr
in
rain 24hr
in
rain mn
in
humidity
%
barometer
mb
20260905141029 62 0 1.0 9.0 0.00 0.00 0.00 92 1018.6
20260905140525 62 243 1.0 9.0 0.00 0.00 0.00 92 1018.1
20260905140100 61 0 2.0 6.0 0.00 0.00 0.00 93 1018.0
20260905135528 61 171 1.0 5.0 0.00 0.00 0.00 92 1018.0
20260905135028 62 167 2.0 5.0 0.00 0.00 0.00 93 1018.0
20260905134546 61 34 1.0 5.0 0.00 0.00 0.00 93 1018.0
20260905134029 61 0 1.0 8.0 0.00 0.00 0.00 92 1017.9
20260905133528 61 91 1.0 9.0 0.00 0.00 0.00 93 1017.9
20260905133045 61 49 3.0 9.0 0.00 0.00 0.00 93 1017.8
20260905132528 61 57 2.0 6.0 0.00 0.00 0.00 93 1017.8
20260905132028 61 68 1.0 5.0 0.00 0.00 0.00 93 1017.8
20260905131541 61 0 0.0 5.0 0.00 0.00 0.00 93 1017.9
20260905131029 61 0 1.0 6.0 0.00 0.00 0.00 93 1017.9
20260905130529 61 0 0.0 6.0 0.00 0.00 0.00 93 1017.9
20260905130044 61 78 0.0 5.0 0.00 0.00 0.00 93 1017.8
20260905125531 61 291 1.0 6.0 0.00 0.00 0.00 92 1017.8
20260905125029 61 58 2.0 6.0 0.00 0.00 0.00 92 1017.6
20260905124545 61 330 1.0 5.0 0.00 0.00 0.00 92 1017.5
20260905124031 61 59 0.0 5.0 0.00 0.00 0.00 92 1017.5
20260905123529 61 80 0.0 5.0 0.00 0.00 0.00 92 1017.4
20260905123046 61 16 1.0 7.0 0.00 0.00 0.00 92 1017.3
20260905122529 61 0 1.0 7.0 0.00 0.00 0.00 92 1017.3
20260905122026 61 0 0.0 4.0 0.00 0.00 0.00 92 1017.3
20260905121542 61 0 1.0 4.0 0.00 0.00 0.00 92 1017.2
20260905121028 61 0 1.0 3.0 0.00 0.00 0.00 92 1017.0
20260905120527 61 286 0.0 3.0 0.00 0.00 0.00 92 1017.0
20260905120053 61 16 1.0 4.0 0.00 0.00 0.00 92 1016.9
20260905115528 61 0 1.0 8.0 0.00 0.00 0.00 92 1017.0
20260905115028 61 42 1.0 8.0 0.00 0.00 0.00 92 1017.0
20260905114552 61 17 1.0 3.0 0.00 0.00 0.00 92 1017.0
20260905114029 61 51 1.0 4.0 0.00 0.00 0.00 92 1017.0
20260905113527 61 49 0.0 4.0 0.00 0.00 0.00 92 1016.7
20260905113046 61 44 0.0 6.0 0.00 0.00 0.00 92 1016.8
20260905112526 61 42 1.0 6.0 0.00 0.00 0.00 92 1016.7
20260905112029 61 43 1.0 4.0 0.00 0.00 0.00 92 1016.5
20260905111545 61 252 0.0 3.0 0.00 0.00 0.00 92 1016.7
20260905111031 61 172 1.0 3.0 0.00 0.00 0.00 92 1016.7
20260905110530 61 0 0.0 3.0 0.00 0.00 0.00 92 1016.7
20260905110042 61 0 0.0 3.0 0.00 0.00 0.00 92 1016.8
20260905105529 61 83 0.0 4.0 0.00 0.00 0.00 92 1016.8
20260905105028 61 17 0.0 5.0 0.00 0.00 0.00 92 1016.8
20260905104556 61 0 0.0 5.0 0.00 0.00 0.00 92 1016.7
20260905104028 61 38 0.0 4.0 0.00 0.00 0.00 92 1016.8
20260905103533 61 0 1.0 4.0 0.00 0.00 0.00 92 1016.6
20260905103051 61 26 1.0 3.0 0.00 0.00 0.00 92 1016.6
20260905102528 62 76 1.0 3.0 0.00 0.00 0.00 92 1016.6
20260905102027 62 198 0.0 3.0 0.00 0.00 0.00 92 1016.4
20260905101545 62 162 0.0 3.0 0.00 0.00 0.00 92 1016.5
20260905101026 62 65 0.0 3.0 0.00 0.00 0.00 92 1016.5
20260905100525 62 0 1.0 3.0 0.00 0.00 0.00 92 1016.5
20260905100118 62 0 0.0 4.0 0.00 0.00 0.00 92 1016.5
20260905095532 62 0 1.0 4.0 0.00 0.00 0.00 92 1016.3
20260905095028 62 17 1.0 3.0 0.00 0.00 0.00 92 1016.0
20260905094543 62 46 0.0 6.0 0.00 0.00 0.00 92 1015.9
20260905094028 62 5 2.0 6.0 0.00 0.00 0.00 91 1015.7
20260905093527 62 9 1.0 5.0 0.00 0.00 0.00 91 1015.6
20260905093046 62 68 1.0 5.0 0.00 0.00 0.00 91 1015.4
20260905092528 62 5 1.0 5.0 0.00 0.00 0.00 91 1015.3
20260905092028 62 19 0.0 4.0 0.00 0.00 0.00 91 1015.5
20260905091544 62 0 1.0 4.0 0.00 0.00 0.00 91 1015.4
20260905091028 62 0 1.0 4.0 0.00 0.00 0.00 91 1015.5
20260905090528 62 37 1.0 5.0 0.00 0.00 0.00 91 1015.5
20260905090112 62 0 1.0 5.0 0.00 0.00 0.00 91 1015.5
20260905085529 62 9 2.0 5.0 0.00 0.00 0.00 91 1015.8
20260905085029 62 43 2.0 9.0 0.00 0.00 0.00 91 1015.9
20260905084551 62 0 2.0 9.0 0.00 0.00 0.00 91 1015.9
20260905084035 62 22 1.0 6.0 0.00 0.00 0.00 91 1015.9
20260905083527 62 55 1.0 9.0 0.00 0.00 0.00 91 1015.9
20260905083051 62 54 1.0 9.0 0.00 0.00 0.00 91 1016.0
20260905082529 62 56 2.0 9.0 0.00 0.00 0.00 91 1016.0
20260905082032 62 11 2.0 8.0 0.00 0.00 0.00 91 1016.0
20260905081548 62 14 1.0 8.0 0.00 0.00 0.00 91 1015.9
20260905081028 62 26 1.0 8.0 0.00 0.00 0.00 91 1016.1
20260905080529 62 31 2.0 9.0 0.00 0.00 0.00 91 1016.1
20260905080053 62 0 2.0 9.0 0.00 0.00 0.00 91 1016.1
20260905075529 62 46 3.0 7.0 0.00 0.00 0.00 91 1016.2
20260905075028 63 115 1.0 5.0 0.00 0.00 0.00 91 1016.4
20260905074543 63 73 1.0 5.0 0.00 0.00 0.00 91 1016.4
20260905074029 63 61 1.0 7.0 0.00 0.00 0.00 91 1016.5
20260905073528 63 32 1.0 7.0 0.00 0.00 0.00 90 1016.5
20260905073046 63 74 3.0 6.0 0.00 0.00 0.00 90 1016.6
20260905072528 63 329 1.0 4.0 0.00 0.00 0.00 90 1016.7
20260905072029 63 42 1.0 4.0 0.00 0.00 0.00 90 1016.6
20260905071552 63 51 2.0 4.0 0.00 0.00 0.00 90 1016.7
20260905071029 63 30 1.0 3.0 0.00 0.00 0.00 90 1016.6
20260905070528 63 91 0.0 4.0 0.00 0.00 0.00 90 1016.5
20260905070051 63 0 0.0 5.0 0.00 0.00 0.00 90 1016.5
20260905065525 63 64 0.0 5.0 0.00 0.00 0.00 90 1016.6
20260905065031 63 37 0.0 3.0 0.00 0.00 0.00 90 1016.7
20260905064551 63 132 0.0 5.0 0.00 0.00 0.00 90 1016.7
20260905064035 63 360 1.0 5.0 0.00 0.00 0.00 90 1016.7
20260905063528 63 142 0.0 4.0 0.00 0.00 0.00 90 1016.7
20260905063052 63 0 0.0 3.0 0.00 0.00 0.00 90 1016.6
20260905062528 63 0 0.0 3.0 0.00 0.00 0.00 90 1016.4
20260905062028 63 0 1.0 3.0 0.00 0.00 0.00 89 1016.4
20260905061543 63 71 0.0 8.0 0.00 0.00 0.00 89 1016.4
20260905061027 63 0 1.0 8.0 0.00 0.00 0.00 89 1016.5
20260905060525 63 0 1.0 5.0 0.00 0.00 0.00 89 1016.5
20260905060053 63 0 1.0 5.0 0.00 0.00 0.00 89 1016.6
20260905055528 63 45 0.0 5.0 0.00 0.00 0.00 89 1016.7
20260905055028 63 9 1.0 5.0 0.00 0.00 0.00 89 1016.7
20260905054543 63 51 1.0 5.0 0.00 0.00 0.00 89 1016.7
20260905054028 63 19 2.0 5.0 0.00 0.00 0.00 89 1016.5
20260905053528 63 61 1.0 3.0 0.00 0.00 0.00 89 1016.4
20260905053053 63 0 1.0 4.0 0.00 0.00 0.00 89 1016.5
20260905052527 63 360 1.0 4.0 0.00 0.00 0.00 89 1016.4
20260905052027 63 82 0.0 4.0 0.00 0.00 0.00 88 1016.4
20260905051550 63 25 0.0 5.0 0.00 0.00 0.00 88 1016.5
20260905051028 63 30 2.0 5.0 0.00 0.00 0.00 88 1016.3
20260905050528 63 28 1.0 5.0 0.00 0.00 0.00 88 1016.5
20260905050047 63 64 1.0 5.0 0.00 0.00 0.00 88 1016.6
20260905045527 63 82 2.0 5.0 0.00 0.00 0.00 88 1016.5
20260905045029 63 35 2.0 5.0 0.00 0.00 0.00 88 1016.5
20260905044552 64 39 1.0 4.0 0.00 0.00 0.00 88 1016.4
20260905044025 64 38 1.0 4.0 0.00 0.00 0.00 87 1016.5
20260905043528 64 19 2.0 4.0 0.00 0.00 0.00 87 1016.6
20260905043053 64 44 1.0 4.0 0.00 0.00 0.00 87 1016.5
20260905042528 64 0 0.0 3.0 0.00 0.00 0.00 87 1016.5
20260905042028 64 0 1.0 5.0 0.00 0.00 0.00 87 1016.4
20260905041551 64 92 1.0 5.0 0.00 0.00 0.00 86 1016.4
20260905041029 64 0 1.0 5.0 0.00 0.00 0.00 86 1016.6
20260905040528 64 48 1.0 5.0 0.00 0.00 0.00 86 1016.5
20260905040044 65 82 2.0 5.0 0.00 0.00 0.00 86 1016.5
20260905035529 65 36 1.0 6.0 0.00 0.00 0.00 85 1016.5
20260905035027 65 36 2.0 7.0 0.00 0.00 0.00 85 1016.4
20260905034553 65 41 2.0 7.0 0.00 0.00 0.00 85 1016.3
20260905034029 65 38 2.0 7.0 0.00 0.00 0.00 84 1016.3
20260905033528 66 53 1.0 5.0 0.00 0.00 0.00 84 1016.2
20260905033046 66 46 1.0 6.0 0.00 0.00 0.00 83 1016.1
20260905032529 66 46 2.0 9.0 0.00 0.00 0.00 83 1016.2
20260905032028 67 50 1.0 10.0 0.00 0.00 0.00 83 1016.0
20260905031551 67 57 4.0 10.0 0.00 0.00 0.00 82 1016.0
20260905031027 67 81 4.0 10.0 0.00 0.00 0.00 82 1016.1
20260905030528 68 34 2.0 8.0 0.00 0.00 0.00 82 1016.0
20260905030044 68 5 1.0 11.0 0.00 0.00 0.00 81 1016.1
20260905025528 69 30 3.0 11.0 0.00 0.00 0.00 81 1015.9
20260905025028 69 100 3.0 11.0 0.00 0.00 0.00 80 1015.9
20260905024545 69 22 4.0 11.0 0.00 0.00 0.00 80 1015.8
20260905024028 70 352 3.0 11.0 0.00 0.00 0.00 80 1015.6
20260905023528 70 52 3.0 11.0 0.00 0.00 0.00 79 1015.5
20260905023044 71 60 2.0 11.0 0.00 0.00 0.00 79 1015.4
20260905022527 71 53 1.0 11.0 0.00 0.00 0.00 78 1015.5
20260905022028 72 18 3.0 11.0 0.00 0.00 0.00 78 1015.4
20260905021544 72 85 4.0 10.0 0.00 0.00 0.00 77 1015.3
20260905021028 73 15 2.0 10.0 0.00 0.00 0.00 78 1015.3
20260905020530 73 46 3.0 10.0 0.00 0.00 0.00 77 1015.3
20260905020057 73 53 3.0 9.0 0.00 0.00 0.00 77 1015.4
20260905015528 74 5 2.0 11.0 0.00 0.00 0.00 77 1015.3
20260905015028 74 17 3.0 11.0 0.00 0.00 0.00 76 1015.2
20260905014551 74 40 4.0 11.0 0.00 0.00 0.00 76 1015.0
20260905014027 74 57 2.0 5.0 0.00 0.00 0.00 76 1015.1
20260905013529 75 5 2.0 5.0 0.00 0.00 0.00 76 1015.0
20260905013045 75 77 2.0 4.0 0.00 0.00 0.00 75 1014.9
20260905012529 75 12 1.0 4.0 0.00 0.00 0.00 74 1014.9
20260905012029 76 53 2.0 4.0 0.00 0.00 0.00 74 1014.7
20260905011551 76 45 1.0 5.0 0.00 0.00 0.00 74 1014.6
20260905011029 76 0 1.0 5.0 0.00 0.00 0.00 73 1014.6
20260905010529 76 0 1.0 4.0 0.00 0.00 0.00 72 1014.6
20260905010057 77 97 1.0 4.0 0.00 0.00 0.00 72 1014.6
20260905005528 77 11 1.0 4.0 0.00 0.00 0.00 72 1014.6
20260905005029 78 21 2.0 6.0 0.00 0.00 0.00 71 1014.5
20260905004551 78 65 2.0 6.0 0.00 0.00 0.00 70 1014.4
20260905004031 78 44 1.0 4.0 0.00 0.00 0.00 70 1014.5
20260905003526 79 0 1.0 4.0 0.00 0.00 0.00 69 1014.5
20260905003047 79 5 1.0 5.0 0.00 0.00 0.00 69 1014.6
20260905002529 80 28 2.0 5.0 0.00 0.00 0.00 68 1014.5
20260905002029 80 47 1.0 5.0 0.00 0.00 0.00 67 1014.4
20260905001551 81 342 2.0 6.0 0.00 0.00 0.00 67 1014.3
20260905001025 81 12 1.0 6.0 0.00 0.00 0.00 66 1014.3
20260905000529 81 54 1.0 5.0 0.00 0.00 0.00 66 1014.2
20260905000058 81 71 2.0 5.0 0.00 0.00 0.00 66 1014.2
20260904235527 82 71 3.0 9.0 0.00 0.00 0.00 65 1014.3
20260904235027 82 74 2.0 9.0 0.00 0.00 0.00 64 1014.2
20260904234551 82 17 3.0 9.0 0.00 0.00 0.00 64 1014.3
20260904234028 83 59 3.0 8.0 0.00 0.00 0.00 63 1014.2
20260904233525 83 47 2.0 8.0 0.00 0.00 0.00 63 1014.1
20260904233043 83 11 3.0 7.0 0.00 0.00 0.00 63 1014.2
20260904232529 84 19 2.0 5.0 0.00 0.00 0.00 63 1014.1
20260904232027 84 342 1.0 9.0 0.00 0.00 0.00 62 1014.1
20260904231554 84 23 2.0 9.0 0.00 0.00 0.00 62 1014.0
20260904231028 84 293 1.0 5.0 0.00 0.00 0.00 62 1014.0
20260904230530 84 57 1.0 5.0 0.00 0.00 0.00 61 1014.1
20260904230100 84 39 3.0 5.0 0.00 0.00 0.00 61 1014.0
20260904225529 84 9 2.0 6.0 0.00 0.00 0.00 62 1014.0
20260904225027 84 75 2.0 6.0 0.00 0.00 0.00 62 1013.9
20260904224550 84 75 2.0 6.0 0.00 0.00 0.00 62 1013.9
20260904224028 85 56 3.0 6.0 0.00 0.00 0.00 61 1013.9
20260904223527 85 360 1.0 7.0 0.00 0.00 0.00 62 1013.7
20260904223057 85 57 3.0 8.0 0.00 0.00 0.00 62 1013.7
20260904222529 85 66 2.0 9.0 0.00 0.00 0.00 60 1013.8
20260904222026 85 69 4.0 9.0 0.00 0.00 0.00 60 1013.8
20260904221545 85 38 2.0 9.0 0.00 0.00 0.00 60 1013.8
20260904221028 85 68 3.0 9.0 0.00 0.00 0.00 61 1013.8
20260904220530 85 57 2.0 9.0 0.00 0.00 0.00 61 1013.6
20260904220052 85 346 3.0 9.0 0.00 0.00 0.00 61 1013.7
20260904215528 85 302 2.0 6.0 0.00 0.00 0.00 62 1013.7
20260904215028 85 57 2.0 6.0 0.00 0.00 0.00 62 1013.7
20260904214553 84 22 2.0 8.0 0.00 0.00 0.00 62 1013.6
20260904214028 84 72 2.0 8.0 0.00 0.00 0.00 61 1013.7
20260904213527 85 28 3.0 8.0 0.00 0.00 0.00 60 1013.9
20260904213045 85 350 1.0 8.0 0.00 0.00 0.00 61 1013.8
20260904212529 85 53 3.0 9.0 0.00 0.00 0.00 61 1013.9
20260904212028 85 337 2.0 9.0 0.00 0.00 0.00 60 1013.8
20260904211556 85 360 4.0 9.0 0.00 0.00 0.00 61 1013.8
20260904211030 84 5 2.0 7.0 0.00 0.00 0.00 61 1013.6
20260904210529 84 61 2.0 10.0 0.00 0.00 0.00 62 1013.7
20260904210051 84 49 4.0 10.0 0.00 0.00 0.00 62 1013.6
20260904205528 84 56 2.0 8.0 0.00 0.00 0.00 63 1013.7
20260904205028 84 0 3.0 8.0 0.00 0.00 0.00 63 1013.8
20260904204544 83 0 2.0 7.0 0.00 0.00 0.00 63 1013.8
20260904204029 84 92 2.0 7.0 0.00 0.00 0.00 64 1013.7
20260904203529 83 35 2.0 8.0 0.00 0.00 0.00 64 1013.7
20260904203045 83 123 3.0 8.0 0.00 0.00 0.00 64 1013.8
20260904202529 83 33 2.0 8.0 0.00 0.00 0.00 64 1013.8
20260904202029 83 87 2.0 8.0 0.00 0.00 0.00 64 1013.9
20260904201558 83 109 2.0 8.0 0.00 0.00 0.00 65 1013.9
20260904201027 83 47 2.0 8.0 0.00 0.00 0.00 65 1013.9
20260904200527 83 293 2.0 10.0 0.00 0.00 0.00 65 1013.9
20260904200059 82 309 2.0 10.0 0.00 0.00 0.00 66 1013.8
20260904195528 82 94 4.0 10.0 0.00 0.00 0.00 67 1013.8
20260904195028 82 57 4.0 8.0 0.00 0.00 0.00 67 1013.8
20260904194550 82 91 1.0 10.0 0.00 0.00 0.00 67 1013.8
20260904194029 81 38 3.0 10.0 0.00 0.00 0.00 69 1013.9
20260904193529 81 36 5.0 10.0 0.00 0.00 0.00 68 1014.0
20260904193056 81 57 2.0 10.0 0.00 0.00 0.00 70 1014.0
20260904192532 80 38 3.0 10.0 0.00 0.00 0.00 70 1014.0
20260904192028 80 26 2.0 9.0 0.00 0.00 0.00 70 1014.0
20260904191552 80 360 3.0 9.0 0.00 0.00 0.00 71 1014.0
20260904191031 79 54 3.0 8.0 0.00 0.00 0.00 71 1013.9
20260904190528 79 49 2.0 9.0 0.00 0.00 0.00 72 1013.9
20260904190044 79 35 3.0 9.0 0.00 0.00 0.00 72 1014.0
20260904185529 79 42 3.0 7.0 0.00 0.00 0.00 72 1014.0
20260904185027 79 27 2.0 6.0 0.00 0.00 0.00 72 1014.0
20260904184609 78 38 2.0 6.0 0.00 0.00 0.00 73 1014.0
20260904184029 78 46 3.0 6.0 0.00 0.00 0.00 73 1014.0
20260904183528 78 53 2.0 6.0 0.00 0.00 0.00 72 1014.0
20260904183052 78 25 2.0 7.0 0.00 0.00 0.00 73 1014.1
20260904182527 77 53 2.0 8.0 0.00 0.00 0.00 74 1014.1
20260904182032 77 58 3.0 8.0 0.00 0.00 0.00 73 1014.1
20260904181548 77 46 1.0 8.0 0.00 0.00 0.00 74 1014.1
20260904181028 77 124 2.0 8.0 0.00 0.00 0.00 74 1014.1
20260904180529 76 279 2.0 8.0 0.00 0.00 0.00 75 1014.1
20260904175525 76 328 1.0 8.0 0.00 0.00 0.00 76 1014.1
20260904175029 75 352 3.0 8.0 0.00 0.00 0.00 76 1014.1
20260904174613 75 42 2.0 7.0 0.00 0.00 0.00 76 1014.1
20260904174030 75 36 2.0 8.0 0.00 0.00 0.00 77 1014.1
20260904173528 75 306 2.0 8.0 0.00 0.00 0.00 77 1014.1
20260904173048 74 50 2.0 8.0 0.00 0.00 0.00 79 1014.0
20260904172532 74 304 2.0 8.0 0.00 0.00 0.00 79 1014.1
20260904172028 73 20 3.0 8.0 0.00 0.00 0.00 81 1014.0
20260904171602 73 0 3.0 9.0 0.00 0.00 0.00 81 1014.0
20260904171027 73 67 4.0 9.0 0.00 0.00 0.00 81 1014.1
20260904170528 73 28 3.0 9.0 0.00 0.00 0.00 81 1014.1
20260904170053 73 53 4.0 9.0 0.00 0.00 0.00 81 1014.0
20260904165529 73 60 2.0 8.0 0.00 0.00 0.00 81 1014.0
20260904165030 73 58 3.0 8.0 0.00 0.00 0.00 82 1013.9
20260904164553 73 293 3.0 11.0 0.00 0.00 0.00 81 1013.9
20260904164028 73 318 3.0 11.0 0.00 0.00 0.00 81 1013.9
20260904163528 73 12 4.0 11.0 0.00 0.00 0.00 82 1013.9
20260904163053 73 330 3.0 7.0 0.00 0.00 0.00 83 1013.7
20260904162530 73 30 3.0 5.0 0.00 0.00 0.00 83 1013.6
20260904162029 73 34 2.0 5.0 0.00 0.00 0.00 83 1013.6
20260904161549 73 322 1.0 7.0 0.00 0.00 0.00 83 1013.5
20260904161028 72 330 2.0 7.0 0.00 0.00 0.00 84 1013.5
20260904160528 72 352 1.0 4.0 0.00 0.00 0.00 84 1013.5
20260904160045 72 0 0.0 6.0 0.00 0.00 0.00 84 1013.5
20260904155528 71 340 2.0 6.0 0.00 0.00 0.00 84 1013.4
20260904155028 71 344 2.0 4.0 0.00 0.00 0.00 85 1013.4
20260904154553 71 288 1.0 4.0 0.00 0.00 0.00 85 1013.4
20260904154027 71 309 2.0 6.0 0.00 0.00 0.00 86 1013.3
20260904153527 71 14 1.0 7.0 0.00 0.00 0.00 86 1013.3
20260904153109 71 61 1.0 7.0 0.00 0.00 0.00 87 1013.3
20260904152528 70 17 0.0 4.0 0.00 0.00 0.00 87 1013.3
20260904152026 70 360 1.0 4.0 0.00 0.00 0.00 88 1013.2
20260904151547 70 5 1.0 3.0 0.00 0.00 0.00 88 1013.0
20260904151030 69 360 2.0 4.0 0.00 0.00 0.00 89 1013.1
20260904150529 69 69 2.0 4.0 0.00 0.00 0.00 89 1012.9
20260904150055 69 342 1.0 3.0 0.00 0.00 0.00 90 1012.8
20260904145530 68 351 1.0 6.0 0.00 0.00 0.00 90 1012.8
20260904145028 68 43 2.0 6.0 0.00 0.00 0.00 90 1012.8
20260904144550 68 24 1.0 5.0 0.00 0.00 0.00 91 1012.7
20260904144028 68 38 0.0 3.0 0.00 0.00 0.00 91 1012.7
20260904143527 68 69 1.0 4.0 0.00 0.00 0.00 91 1012.6
20260904143048 67 327 0.0 6.0 0.00 0.00 0.00 92 1012.7
20260904142527 67 5 1.0 6.0 0.00 0.00 0.00 92 1012.8
20260904142027 67 344 1.0 4.0 0.00 0.00 0.00 92 1012.7
20260904141544 67 326 1.0 5.0 0.00 0.00 0.00 92 1012.5